Terminal Aerodrome Forecast
Issued by NWS El Paso, TX

Home | Current Version | Previous Version | Text Only | Print | Product List | Glossary On
Versions: 1 2 3 4 5 6 7 8 9 10 11 12 13 14 15 16
000
FTUS44 KEPZ 041100
TAFELP
TAF
KELP 041133Z 0412/0512 23011KT P6SM VCSH SCT030 BKN060 BKN100
     FM041800 28012G22KT P6SM VCSH SCT050 BKN080 BKN140
     FM050300 07015G25KT P6SM VCSH SCT030 BKN050
     FM050600 09015G25KT P6SM SCT015 BKN030=

USA.gov is the U.S. government's official web portal to all federal, state and local government web resources and services.